Regional Weather Roundup
Issued by NWS

Home | Current Version | Previous Version | Graphics & Text | Print | Product List | Glossary On
Versions: 1 2 3 4 5 6 7 8 9 10 11 12 13 14 15 16 17 18 19 20 21 22 23 24 25 26 27 28 29 30 31 32 33 34 35 36 37 38 39 40 41 42 43 44 45 46 47 48 49 50
000
ASUS43 KLOT 161912
RWRIL

ILLINOIS REGIONAL WEATHER ROUNDUP
NATIONAL WEATHER SERVICE CHICAGO/ROMEOVILLE IL
100 PM CST MON JAN 16 2017

NOTE: "FAIR" INDICATES FEW OR NO CLOUDS BELOW 12,000 FEET WITH NO
SIGNIFICANT WEATHER AND/OR OBSTRUCTIONS TO VISIBILITY.

* THESE STATIONS ARE NOT UNDER NWS QUALITY CONTROL. THEY ALSO MAY NOT
  REPORT WEATHER SUCH AS PRECIPITATION OR FOG.

ILZ001-002-007-009-015-016-024-162000-
NORTHWEST ILLINOIS

CITY           SKY/WX    TMP DP  RH WIND       PRES   REMARKS
MOLINE         LGT RAIN  36  34  92 E9        30.03F FOG     WCI  29
STERLING*      LGT SNOW  34  33  96 E13       30.06F FOG     WCI  25
SAVANNA*       MIX PCPN  34  33  97 E3        30.07F
$$

ILZ003-004-008-010-011-017-018-162000-
NORTH CENTRAL ILLINOIS

CITY           SKY/WX    TMP DP  RH WIND       PRES   REMARKS
ROCKFORD       LGT RAIN  35  32  88 E7        30.10F FOG     WCI  29
FREEPORT*      LGT RAIN  32  32 100 E9        30.09F WCI  24
ROCHELLE*      RAIN      33  33  99 E9        30.08F WCI  25
DE KALB*       MIX PCPN  34  33  98 E9        30.10F VSB 3/4 WCI  26
$$

ILZ005-006-012>014-019>023-162000-
NORTHEAST ILLINOIS

CITY           SKY/WX    TMP DP  RH WIND       PRES   REMARKS
CHICAGO-OHARE  LGT RAIN  35  34  96 E8        30.12F FOG     WCI  29
CHICAGO-MIDWAY LGT RAIN  36  34  92 E7        30.13F FOG     WCI  30
AURORA         LGT RAIN  36  34  92 E7        30.11F VSB 1   WCI  30
LANSING*       LGT RAIN  35  35 100 SE6       30.14F VSB 1   WCI  30
JOLIET*        RAIN      36  36  99 E6        30.11F WCI  31
WAUKEGAN       LGT RAIN  35  34  96 E7        30.13F VSB 3/4 WCI  29
DUPAGE AIRPORT RAIN      35  32  88 E7        30.11F FOG     WCI  29
KANKAKEE*      FOG       36  36  99 E8        30.11F VSB 1/2 WCI  30
WHEELING       LGT RAIN  35  33  92 E6        30.14F FOG     WCI  30
MORRIS*        RAIN      34  33  96 E8        30.09F VSB 3/4 WCI  27
ROMEOVILLE*    RAIN      35  35 100 E8        30.11F VSB 1   WCI  28
NORTHERLY ISL    N/A     32  31  96 E5          N/A  WCI  27
$$

LMZ740>746-162000-
SOUTHERN LAKE MICHIGAN

STATION/POSITION SKY/WX   TEMP    WIND        PRES    VSBY  WAVE
                          AIR SEA DIR/SP/G                  HT/PER
                          (F)     (DEG/KT/KT) (MB)    (MI)  (FT/S)
HARRISON CRIB              34     110/ 10/ 10   N/A
BURNHAM HARBOR             32     100/  4/  6   N/A
CALUMET HARBOR             33     100/  4/  4 1020.5F
BURNS HARBOR               36     140/  4/ 11 1022.4
MICHIGAN CITY              35      90/  6/  7   N/A
$$

ILZ025>027-034>036-040-047-049-050-058-095>099-162000-
WEST-CENTRAL ILLINOIS

CITY           SKY/WX    TMP DP  RH WIND       PRES   REMARKS
QUINCY         LGT RAIN  39  39 100 E10       29.95F FOG     WCI  32
GALESBURG*     CLOUDY    35  35 100 E8        30.02F FOG     WCI  28
MACOMB*        RAIN      36  36 100 E9        30.03F VSB 3/4 WCI  29
JACKSONVILLE*  LGT RAIN  38  38  99 E9        30.00F VSB 1/4 WCI  32
PITTSFIELD*    FOG       42  42 100 E7        29.98F VSB 1/2
$$

ILZ028>032-037-038-041>044-048-051>054-059>061-162000-
CENTRAL ILLINOIS

CITY           SKY/WX    TMP DP  RH WIND       PRES   REMARKS
PONTIAC        FOG       36  36 100 E13       30.08F VSB 1/2 WCI  27
BLOOMINGTON    LGT RAIN  38  38 100 SE14      30.06F VSB 1/4 WCI  30
DECATUR        FOG       43  43 100 SE8       30.07F VSB 1/4
PEORIA         FOG       37  37 100 E7        30.05F VSB 1/8 WCI  32
LACON*         CLOUDY    34  34 100 E6        30.05F FOG     WCI  29
LINCOLN*       DRZL/FOG  40  40 100 E6        30.04F VSB 1/4
SPRINGFIELD    LGT RAIN  43  42  97 SE9       30.04F VSB 1/4
TAYLORVILLE    DRIZZLE   45  45 100 SE8       30.03F
$$

ILZ033-039-045-046-055>057-062-063-162000-
EAST-CENTRAL ILLINOIS

CITY           SKY/WX    TMP DP  RH WIND       PRES   REMARKS
CHAMPAIGN      FOG       41  40  96 E12       30.08F VSB 1/4
RANTOUL*       FOG       40  40  99 E7        30.08F VSB 1/4
MATTOON        FOG       47  46  97 S13       30.07F VSB 3/4
$$

ILZ079-100>102-162000-
SOUTHWEST ILLINOIS

CITY           SKY/WX    TMP DP  RH WIND       PRES   REMARKS
ALTON          RAIN      46  46 100 SE9       30.02F FOG
BELLEVILLE     CLOUDY    50  50 100 E6        30.00F
CAHOKIA*       CLOUDY    50  47  89 S7        30.02F
SPARTA*        LGT RAIN  49  49  99 SE9       30.03F
$$

ILZ064>066-069>071-074>076-080>082-084>086-088>090-092>094-162000-
SOUTH-CENTRAL ILLINOIS

CITY           SKY/WX    TMP DP  RH WIND       PRES   REMARKS
CARBONDALE     CLOUDY    52  52 100 E6        30.04F
CAIRO*         MOSUNNY   58  56  92 S9        30.05F
EFFINGHAM*     CLOUDY    47  47 100 SE9       30.09F FOG
MARION         LGT RAIN  54  54 100 E7        30.05F
MT. VERNON     LGT RAIN  50  49  96 VRB5      30.06F
CENTRALIA*     CLOUDY    51  50  97 SE8       30.04F FOG
SALEM*         CLOUDY    50  48  93 SE8       30.06F FOG
METROPOLIS*    LGT RAIN  55  53  93 CALM      30.07F
$$

ILZ067-068-072-073-078-083-087-091-162000-
SOUTHEAST ILLINOIS

CITY           SKY/WX    TMP DP  RH WIND       PRES   REMARKS
LAWRENCEVILLE  PTSUNNY   53  51  93 SE10      30.11F
FLORA*         RAIN      50  49  97 SE6       30.08F
FAIRFIELD*     RAIN      49  49 100 CALM      30.07F
HARRISBURG*    RAIN      50  50 100 E3        30.08F
ROBINSON*      CLOUDY    48  48  98 SE7       30.12F FOG
CARMI*         LGT RAIN  51  51 100 SE6       30.08F
$$

ABBREVIATIONS USED IN REMARKS
   TC - TEMPERATURE IN CELSIUS
  WCI - WIND CHILL INDEX
   HX - HEAT INDEX
  VSB - VISIBILITY
$$





USA.gov is the U.S. government's official web portal to all federal, state and local government web resources and services.